| time (UTC) | temp F | wind direction | speed MPH | gust MPH | rain 1hr in | rain 24hr in | rain mn in | humidity % | barometer mb |
| 20260906004002 | 64 | 294 | 1.0 | 2.0 | 0.00 | 0.00 | 0.00 | 81 | 1010.2 |
| 20260906003505 | 64 | 294 | 1.0 | 2.0 | 0.00 | 0.00 | 0.00 | 81 | 1010.2 |
| 20260906002510 | 64 | 294 | 0.0 | 1.0 | 0.00 | 0.00 | 0.00 | 80 | 1010.0 |
| 20260906002035 | 64 | 295 | 0.0 | 2.0 | 0.00 | 0.00 | 0.00 | 80 | 1010.0 |
| 20260906000504 | 64 | 294 | 0.0 | 1.0 | 0.00 | 0.00 | 0.00 | 80 | 1009.8 |
| 20260906000036 | 64 | 294 | 0.0 | 2.0 | 0.00 | 0.00 | 0.00 | 80 | 1009.8 |
| 20260905235502 | 64 | 294 | 1.0 | 2.0 | 0.00 | 0.00 | 0.00 | 80 | 1009.8 |
| 20260905235024 | 64 | 294 | 1.0 | 2.0 | 0.00 | 0.00 | 0.00 | 79 | 1009.7 |
| 20260905234531 | 64 | 294 | 0.0 | 2.0 | 0.00 | 0.00 | 0.00 | 79 | 1009.7 |
| 20260905234026 | 64 | 294 | 0.0 | 1.0 | 0.00 | 0.00 | 0.00 | 79 | 1009.8 |
| 20260905233501 | 65 | 294 | 0.0 | 2.0 | 0.00 | 0.00 | 0.00 | 79 | 1009.7 |
| 20260905232508 | 65 | 294 | 0.0 | 2.0 | 0.00 | 0.00 | 0.00 | 78 | 1009.7 |
| 20260905231500 | 65 | 294 | 0.0 | 1.0 | 0.00 | 0.00 | 0.00 | 78 | 1009.6 |
| 20260905231001 | 65 | 294 | 0.0 | 1.0 | 0.00 | 0.00 | 0.00 | 78 | 1009.6 |
| 20260905230020 | 65 | 294 | 0.0 | 1.0 | 0.00 | 0.00 | 0.00 | 77 | 1009.6 |
| 20260905225514 | 65 | 294 | 1.0 | 4.0 | 0.00 | 0.00 | 0.00 | 77 | 1009.7 |
| 20260905225011 | 65 | 294 | 1.0 | 4.0 | 0.00 | 0.00 | 0.00 | 77 | 1009.7 |
| 20260905224011 | 65 | 200 | 0.0 | 2.0 | 0.00 | 0.00 | 0.00 | 77 | 1009.8 |
| 20260905223504 | 65 | 200 | 1.0 | 2.0 | 0.00 | 0.00 | 0.00 | 77 | 1009.9 |
| 20260905223002 | 65 | 302 | 1.0 | 2.0 | 0.00 | 0.00 | 0.00 | 76 | 1009.9 |
| 20260905222531 | 65 | 302 | 0.0 | 2.0 | 0.00 | 0.00 | 0.00 | 76 | 1009.8 |
| 20260905221510 | 65 | 302 | 1.0 | 4.0 | 0.00 | 0.00 | 0.00 | 75 | 1009.8 |
| 20260905221020 | 65 | 302 | 1.0 | 5.0 | 0.00 | 0.00 | 0.00 | 75 | 1009.7 |
| 20260905220523 | 66 | 302 | 1.0 | 5.0 | 0.00 | 0.00 | 0.00 | 75 | 1009.6 |
| 20260905220037 | 66 | 165 | 1.0 | 4.0 | 0.00 | 0.00 | 0.00 | 75 | 1009.5 |
| 20260905215459 | 66 | 82 | 1.0 | 5.0 | 0.00 | 0.00 | 0.00 | 75 | 1009.4 |
| 20260905215005 | 66 | 5 | 1.0 | 6.0 | 0.00 | 0.00 | 0.00 | 74 | 1009.3 |
| 20260905214502 | 66 | 360 | 1.0 | 6.0 | 0.00 | 0.00 | 0.00 | 74 | 1009.2 |
| 20260905214005 | 66 | 161 | 1.0 | 5.0 | 0.00 | 0.00 | 0.00 | 74 | 1009.2 |
| 20260905213502 | 66 | 52 | 1.0 | 5.0 | 0.00 | 0.00 | 0.00 | 74 | 1009.1 |
| 20260905213007 | 66 | 34 | 1.0 | 3.0 | 0.00 | 0.00 | 0.00 | 73 | 1009.2 |
| 20260905212502 | 67 | 130 | 1.0 | 4.0 | 0.00 | 0.00 | 0.00 | 73 | 1009.1 |
| 20260905212002 | 67 | 131 | 1.0 | 5.0 | 0.00 | 0.00 | 0.00 | 72 | 1009.1 |
| 20260905210959 | 68 | 69 | 1.0 | 5.0 | 0.00 | 0.00 | 0.00 | 72 | 1009.0 |
| 20260905210514 | 68 | 13 | 1.0 | 5.0 | 0.00 | 0.00 | 0.00 | 72 | 1009.0 |
| 20260905210041 | 68 | 16 | 2.0 | 5.0 | 0.00 | 0.00 | 0.00 | 72 | 1009.0 |
| 20260905205515 | 68 | 65 | 2.0 | 5.0 | 0.00 | 0.00 | 0.00 | 72 | 1009.1 |
| 20260905205011 | 69 | 63 | 2.0 | 6.0 | 0.00 | 0.00 | 0.00 | 72 | 1009.1 |
| 20260905204459 | 69 | 343 | 1.0 | 6.0 | 0.00 | 0.00 | 0.00 | 71 | 1009.0 |
| 20260905204000 | 69 | 175 | 2.0 | 5.0 | 0.00 | 0.00 | 0.00 | 72 | 1008.8 |
| 20260905203503 | 69 | 153 | 1.0 | 4.0 | 0.00 | 0.00 | 0.00 | 72 | 1008.8 |
| 20260905203022 | 69 | 159 | 1.0 | 3.0 | 0.00 | 0.00 | 0.00 | 72 | 1008.8 |
| 20260905202503 | 69 | 159 | 2.0 | 6.0 | 0.00 | 0.00 | 0.00 | 72 | 1008.8 |
| 20260905201503 | 69 | 69 | 1.0 | 6.0 | 0.00 | 0.00 | 0.00 | 72 | 1008.6 |
| 20260905201002 | 69 | 63 | 1.0 | 6.0 | 0.00 | 0.00 | 0.00 | 73 | 1008.6 |
| 20260905200522 | 69 | 192 | 1.0 | 5.0 | 0.00 | 0.00 | 0.00 | 72 | 1008.6 |
| 20260905200006 | 70 | 327 | 1.0 | 5.0 | 0.00 | 0.00 | 0.00 | 72 | 1008.7 |
| 20260905195503 | 70 | 196 | 1.0 | 5.0 | 0.00 | 0.00 | 0.00 | 71 | 1008.7 |
| 20260905195023 | 70 | 19 | 2.0 | 5.0 | 0.00 | 0.00 | 0.00 | 70 | 1008.8 |
| 20260905194513 | 71 | 144 | 2.0 | 5.0 | 0.00 | 0.00 | 0.00 | 70 | 1008.6 |
| 20260905193029 | 71 | 154 | 2.0 | 4.0 | 0.00 | 0.00 | 0.00 | 70 | 1008.8 |
| 20260905192506 | 72 | 157 | 2.0 | 5.0 | 0.00 | 0.00 | 0.00 | 70 | 1008.8 |
| 20260905192008 | 71 | 159 | 1.0 | 5.0 | 0.00 | 0.00 | 0.00 | 72 | 1008.7 |
| 20260905191507 | 71 | 13 | 2.0 | 5.0 | 0.00 | 0.00 | 0.00 | 73 | 1008.6 |
| 20260905191001 | 71 | 340 | 1.0 | 5.0 | 0.00 | 0.00 | 0.00 | 74 | 1008.7 |
| 20260905190510 | 70 | 327 | 1.0 | 6.0 | 0.00 | 0.00 | 0.00 | 74 | 1008.7 |
| 20260905190034 | 70 | 192 | 2.0 | 6.0 | 0.00 | 0.00 | 0.00 | 73 | 1008.6 |
| 20260905185501 | 70 | 302 | 2.0 | 5.0 | 0.00 | 0.00 | 0.00 | 75 | 1008.8 |
| 20260905185007 | 70 | 360 | 2.0 | 5.0 | 0.00 | 0.00 | 0.00 | 75 | 1008.7 |
| 20260905184503 | 70 | 333 | 2.0 | 5.0 | 0.00 | 0.00 | 0.00 | 75 | 1008.6 |
| 20260905184005 | 70 | 348 | 2.0 | 5.0 | 0.00 | 0.00 | 0.00 | 74 | 1008.7 |
| 20260905183512 | 71 | 38 | 1.0 | 5.0 | 0.00 | 0.00 | 0.00 | 75 | 1008.7 |
| 20260905182522 | 71 | 86 | 1.0 | 5.0 | 0.00 | 0.00 | 0.00 | 75 | 1008.7 |
| 20260905181506 | 71 | 207 | 3.0 | 7.0 | 0.00 | 0.00 | 0.00 | 73 | 1008.7 |
| 20260905181004 | 71 | 14 | 3.0 | 7.0 | 0.00 | 0.00 | 0.00 | 73 | 1008.7 |
| 20260905180514 | 72 | 46 | 2.0 | 8.0 | 0.00 | 0.00 | 0.00 | 72 | 1008.6 |
| 20260905175006 | 72 | 11 | 2.0 | 7.0 | 0.00 | 0.00 | 0.00 | 73 | 1008.4 |
| 20260905174513 | 72 | 348 | 3.0 | 7.0 | 0.00 | 0.00 | 0.00 | 72 | 1008.4 |
| 20260905174009 | 72 | 355 | 3.0 | 7.0 | 0.00 | 0.00 | 0.00 | 70 | 1008.3 |
| 20260905173501 | 72 | 360 | 2.0 | 5.0 | 0.00 | 0.00 | 0.00 | 70 | 1008.3 |
| 20260905173012 | 73 | 340 | 3.0 | 12.0 | 0.00 | 0.00 | 0.00 | 71 | 1008.4 |
| 20260905172503 | 72 | 360 | 3.0 | 12.0 | 0.00 | 0.00 | 0.00 | 71 | 1008.3 |
| 20260905171520 | 72 | 344 | 3.0 | 9.0 | 0.00 | 0.00 | 0.00 | 72 | 1008.2 |
| 20260905171012 | 72 | 360 | 3.0 | 7.0 | 0.00 | 0.00 | 0.00 | 74 | 1008.2 |
| 20260905170543 | 71 | 17 | 3.0 | 7.0 | 0.00 | 0.00 | 0.00 | 73 | 1008.1 |
| 20260905170033 | 71 | 355 | 3.0 | 7.0 | 0.00 | 0.00 | 0.00 | 74 | 1008.2 |
| 20260905165505 | 70 | 360 | 3.0 | 7.0 | 0.00 | 0.00 | 0.00 | 74 | 1008.2 |
| 20260905165004 | 70 | 360 | 2.0 | 6.0 | 0.00 | 0.00 | 0.00 | 73 | 1008.2 |
| 20260905163004 | 70 | 348 | 3.0 | 7.0 | 0.00 | 0.00 | 0.00 | 75 | 1008.0 |
| 20260905162505 | 70 | 9 | 3.0 | 7.0 | 0.00 | 0.00 | 0.00 | 73 | 1008.0 |
| 20260905162002 | 70 | 360 | 3.0 | 7.0 | 0.00 | 0.00 | 0.00 | 73 | 1008.0 |
| 20260905161501 | 71 | 15 | 3.0 | 8.0 | 0.00 | 0.00 | 0.00 | 73 | 1008.0 |
| 20260905161008 | 71 | 9 | 3.0 | 8.0 | 0.00 | 0.00 | 0.00 | 71 | 1008.0 |
| 20260905160007 | 71 | 29 | 2.0 | 8.0 | 0.00 | 0.00 | 0.00 | 72 | 1008.0 |
| 20260905155512 | 71 | 348 | 3.0 | 7.0 | 0.00 | 0.00 | 0.00 | 73 | 1008.0 |
| 20260905155008 | 72 | 15 | 3.0 | 7.0 | 0.00 | 0.00 | 0.00 | 71 | 1007.9 |
| 20260905154504 | 72 | 13 | 3.0 | 7.0 | 0.00 | 0.00 | 0.00 | 71 | 1007.9 |
| 20260905154010 | 73 | 347 | 3.0 | 7.0 | 0.00 | 0.00 | 0.00 | 69 | 1007.8 |
| 20260905153506 | 73 | 355 | 3.0 | 7.0 | 0.00 | 0.00 | 0.00 | 68 | 1007.7 |
| 20260905153014 | 74 | 5 | 2.0 | 7.0 | 0.00 | 0.00 | 0.00 | 67 | 1007.7 |
| 20260905152508 | 75 | 5 | 3.0 | 7.0 | 0.00 | 0.00 | 0.00 | 68 | 1007.6 |
| 20260905152037 | 75 | 355 | 3.0 | 8.0 | 0.00 | 0.00 | 0.00 | 68 | 1007.7 |
| 20260905151524 | 75 | 348 | 3.0 | 8.0 | 0.00 | 0.00 | 0.00 | 68 | 1007.8 |
| 20260905151006 | 75 | 342 | 3.0 | 7.0 | 0.00 | 0.00 | 0.00 | 67 | 1007.7 |
| 20260905150519 | 76 | 350 | 3.0 | 6.0 | 0.00 | 0.00 | 0.00 | 66 | 1007.7 |
| 20260905150022 | 76 | 345 | 3.0 | 6.0 | 0.00 | 0.00 | 0.00 | 65 | 1007.7 |
| 20260905145513 | 76 | 360 | 3.0 | 6.0 | 0.00 | 0.00 | 0.00 | 66 | 1007.7 |
| 20260905144526 | 76 | 9 | 3.0 | 7.0 | 0.00 | 0.00 | 0.00 | 67 | 1007.5 |
| 20260905144009 | 76 | 343 | 2.0 | 7.0 | 0.00 | 0.00 | 0.00 | 67 | 1007.5 |
| 20260905143515 | 76 | 348 | 2.0 | 6.0 | 0.00 | 0.00 | 0.00 | 67 | 1007.5 |
| 20260905143029 | 76 | 304 | 3.0 | 6.0 | 0.00 | 0.00 | 0.00 | 67 | 1007.4 |
| 20260905142509 | 76 | 342 | 3.0 | 6.0 | 0.00 | 0.00 | 0.00 | 67 | 1007.4 |
| 20260905142019 | 76 | 350 | 3.0 | 7.0 | 0.00 | 0.00 | 0.00 | 68 | 1007.4 |
| 20260905141505 | 76 | 350 | 2.0 | 7.0 | 0.00 | 0.00 | 0.00 | 67 | 1007.3 |
| 20260905141009 | 75 | 302 | 2.0 | 6.0 | 0.00 | 0.00 | 0.00 | 68 | 1007.4 |
| 20260905140500 | 75 | 332 | 2.0 | 7.0 | 0.00 | 0.00 | 0.00 | 67 | 1007.4 |
| 20260905140030 | 75 | 5 | 2.0 | 7.0 | 0.00 | 0.00 | 0.00 | 67 | 1007.5 |
| 20260905134501 | 75 | 338 | 3.0 | 6.0 | 0.00 | 0.00 | 0.00 | 68 | 1007.6 |
| 20260905134001 | 75 | 323 | 3.0 | 7.0 | 0.00 | 0.00 | 0.00 | 70 | 1007.5 |
| 20260905133516 | 74 | 333 | 2.0 | 7.0 | 0.00 | 0.00 | 0.00 | 71 | 1007.5 |
| 20260905133023 | 74 | 349 | 2.0 | 6.0 | 0.00 | 0.00 | 0.00 | 72 | 1007.3 |
| 20260905132500 | 74 | 350 | 3.0 | 6.0 | 0.00 | 0.00 | 0.00 | 72 | 1007.2 |
| 20260905131505 | 73 | 355 | 2.0 | 6.0 | 0.00 | 0.00 | 0.00 | 74 | 1007.1 |
| 20260905131023 | 73 | 360 | 3.0 | 6.0 | 0.00 | 0.00 | 0.00 | 75 | 1007.1 |
| 20260905130500 | 72 | 13 | 3.0 | 6.0 | 0.00 | 0.00 | 0.00 | 77 | 1007.1 |
| 20260905125010 | 70 | 351 | 2.0 | 7.0 | 0.00 | 0.00 | 0.00 | 81 | 1007.0 |
| 20260905124505 | 70 | 355 | 3.0 | 7.0 | 0.00 | 0.00 | 0.00 | 82 | 1006.9 |
| 20260905124010 | 69 | 342 | 3.0 | 5.0 | 0.00 | 0.00 | 0.00 | 84 | 1007.0 |
| 20260905123459 | 68 | 349 | 2.0 | 5.0 | 0.00 | 0.00 | 0.00 | 87 | 1006.9 |
| 20260905123007 | 68 | 355 | 2.0 | 5.0 | 0.00 | 0.00 | 0.00 | 88 | 1006.9 |
| 20260905122516 | 67 | 349 | 2.0 | 4.0 | 0.00 | 0.00 | 0.00 | 88 | 1006.8 |
| 20260905122005 | 66 | 351 | 2.0 | 3.0 | 0.00 | 0.00 | 0.00 | 89 | 1006.8 |
| 20260905121507 | 66 | 344 | 2.0 | 4.0 | 0.00 | 0.00 | 0.00 | 89 | 1006.8 |
| 20260905121001 | 65 | 342 | 2.0 | 4.0 | 0.00 | 0.00 | 0.00 | 90 | 1006.7 |
| 20260905120506 | 65 | 337 | 1.0 | 3.0 | 0.00 | 0.00 | 0.00 | 90 | 1006.7 |
| 20260905120012 | 64 | 273 | 2.0 | 6.0 | 0.00 | 0.00 | 0.00 | 90 | 1006.7 |
| 20260905115518 | 63 | 346 | 1.0 | 6.0 | 0.00 | 0.00 | 0.00 | 90 | 1006.7 |
| 20260905114503 | 63 | 311 | 1.0 | 3.0 | 0.00 | 0.00 | 0.00 | 90 | 1006.8 |
| 20260905114002 | 62 | 270 | 0.0 | 5.0 | 0.00 | 0.00 | 0.00 | 90 | 1006.8 |
| 20260905113508 | 62 | 270 | 0.0 | 5.0 | 0.00 | 0.00 | 0.00 | 90 | 1006.8 |
| 20260905112502 | 62 | 69 | 0.0 | 0.0 | 0.00 | 0.00 | 0.00 | 90 | 1006.7 |
| 20260905112013 | 62 | 69 | 0.0 | 2.0 | 0.00 | 0.00 | 0.00 | 89 | 1006.6 |
| 20260905111514 | 62 | 290 | 0.0 | 2.0 | 0.00 | 0.00 | 0.00 | 90 | 1006.5 |
| 20260905111001 | 62 | 5 | 0.0 | 2.0 | 0.00 | 0.00 | 0.00 | 90 | 1006.5 |
| 20260905110459 | 61 | 5 | 0.0 | 2.0 | 0.00 | 0.00 | 0.00 | 89 | 1006.4 |
| 20260905110032 | 61 | 66 | 0.0 | 0.0 | 0.00 | 0.00 | 0.00 | 89 | 1006.4 |
| 20260905105534 | 61 | 89 | 0.0 | 4.0 | 0.00 | 0.00 | 0.00 | 89 | 1006.3 |
| 20260905105009 | 61 | 331 | 0.0 | 4.0 | 0.00 | 0.00 | 0.00 | 89 | 1006.3 |
| 20260905104504 | 61 | 311 | 0.0 | 1.0 | 0.00 | 0.00 | 0.00 | 89 | 1006.3 |
| 20260905103532 | 61 | 14 | 0.0 | 0.0 | 0.00 | 0.00 | 0.00 | 89 | 1006.1 |
| 20260905103009 | 61 | 15 | 0.0 | 1.0 | 0.00 | 0.00 | 0.00 | 89 | 1006.1 |
| 20260905102500 | 61 | 15 | 0.0 | 1.0 | 0.00 | 0.00 | 0.00 | 89 | 1006.1 |
| 20260905102005 | 61 | 286 | 0.0 | 1.0 | 0.00 | 0.00 | 0.00 | 89 | 1006.2 |
| 20260905101514 | 61 | 286 | 0.0 | 1.0 | 0.00 | 0.00 | 0.00 | 89 | 1006.1 |
| 20260905101004 | 61 | 59 | 0.0 | 0.0 | 0.00 | 0.00 | 0.00 | 89 | 1006.0 |
| 20260905100502 | 61 | 59 | 0.0 | 2.0 | 0.00 | 0.00 | 0.00 | 89 | 1006.0 |
| 20260905095502 | 61 | 265 | 0.0 | 1.0 | 0.00 | 0.00 | 0.00 | 89 | 1006.0 |
| 20260905095004 | 61 | 265 | 0.0 | 4.0 | 0.00 | 0.00 | 0.00 | 89 | 1006.0 |
| 20260905094506 | 61 | 265 | 0.0 | 4.0 | 0.00 | 0.00 | 0.00 | 89 | 1006.0 |
| 20260905094028 | 61 | 272 | 0.0 | 0.0 | 0.00 | 0.00 | 0.00 | 89 | 1006.0 |
| 20260905093506 | 61 | 272 | 0.0 | 0.0 | 0.00 | 0.00 | 0.00 | 89 | 1005.9 |
| 20260905093003 | 61 | 272 | 0.0 | 0.0 | 0.00 | 0.00 | 0.00 | 89 | 1006.0 |
| 20260905092510 | 61 | 229 | 0.0 | 1.0 | 0.00 | 0.00 | 0.00 | 89 | 1006.0 |
| 20260905091505 | 61 | 344 | 0.0 | 1.0 | 0.00 | 0.00 | 0.00 | 89 | 1006.0 |
| 20260905090502 | 61 | 115 | 0.0 | 0.0 | 0.00 | 0.00 | 0.00 | 89 | 1005.9 |
| 20260905085541 | 61 | 115 | 0.0 | 0.0 | 0.00 | 0.01 | 0.00 | 89 | 1006.0 |
| 20260905084504 | 61 | 112 | 0.0 | 0.0 | 0.00 | 0.01 | 0.00 | 89 | 1006.0 |
| 20260905084003 | 62 | 112 | 0.0 | 0.0 | 0.00 | 0.01 | 0.00 | 89 | 1006.0 |
| 20260905083004 | 62 | 107 | 0.0 | 0.0 | 0.00 | 0.01 | 0.00 | 89 | 1006.0 |
| 20260905082509 | 62 | 107 | 0.0 | 0.0 | 0.00 | 0.01 | 0.00 | 89 | 1005.9 |
| 20260905081959 | 62 | 69 | 0.0 | 0.0 | 0.00 | 0.01 | 0.00 | 89 | 1005.9 |
| 20260905081521 | 62 | 69 | 0.0 | 0.0 | 0.00 | 0.01 | 0.00 | 89 | 1005.9 |
| 20260905080503 | 62 | 69 | 0.0 | 0.0 | 0.00 | 0.01 | 0.00 | 89 | 1005.9 |
| 20260905080031 | 62 | 69 | 0.0 | 0.0 | 0.00 | 0.01 | 0.00 | 88 | 1005.9 |
| 20260905075514 | 62 | 69 | 0.0 | 0.0 | 0.00 | 0.01 | 0.00 | 88 | 1005.8 |
| 20260905074959 | 62 | 69 | 0.0 | 1.0 | 0.00 | 0.01 | 0.00 | 88 | 1005.9 |
| 20260905074502 | 62 | 69 | 0.0 | 1.0 | 0.00 | 0.01 | 0.00 | 89 | 1005.8 |
| 20260905074004 | 62 | 170 | 0.0 | 1.0 | 0.00 | 0.01 | 0.00 | 89 | 1005.8 |
| 20260905073501 | 62 | 170 | 0.0 | 1.0 | 0.00 | 0.01 | 0.00 | 89 | 1005.9 |
| 20260905073023 | 62 | 170 | 0.0 | 2.0 | 0.00 | 0.01 | 0.00 | 89 | 1005.9 |
| 20260905072458 | 62 | 328 | 0.0 | 2.0 | 0.00 | 0.01 | 0.00 | 89 | 1006.0 |
| 20260905072024 | 62 | 281 | 0.0 | 2.0 | 0.00 | 0.01 | 0.00 | 88 | 1006.0 |
| 20260905071501 | 62 | 46 | 0.0 | 1.0 | 0.00 | 0.01 | 0.00 | 88 | 1006.0 |
| 20260905071004 | 62 | 46 | 0.0 | 1.0 | 0.00 | 0.01 | 0.00 | 88 | 1006.0 |
| 20260905070513 | 62 | 45 | 0.0 | 1.0 | 0.00 | 0.01 | 0.00 | 88 | 1006.1 |
| 20260905070011 | 62 | 74 | 0.0 | 1.0 | 0.00 | 0.01 | 0.00 | 88 | 1006.2 |
| 20260905065510 | 62 | 140 | 0.0 | 2.0 | 0.00 | 0.01 | 0.00 | 88 | 1006.3 |
| 20260905065000 | 62 | 103 | 0.0 | 2.0 | 0.00 | 0.01 | 0.00 | 88 | 1006.4 |
| 20260905063508 | 62 | 169 | 0.0 | 0.0 | 0.00 | 0.01 | 0.00 | 88 | 1006.5 |
| 20260905063025 | 62 | 169 | 0.0 | 0.0 | 0.00 | 0.01 | 0.00 | 88 | 1006.4 |
| 20260905062509 | 62 | 169 | 0.0 | 0.0 | 0.00 | 0.01 | 0.00 | 88 | 1006.4 |
| 20260905062033 | 62 | 169 | 0.0 | 0.0 | 0.00 | 0.01 | 0.00 | 87 | 1006.4 |
| 20260905061458 | 62 | 168 | 0.0 | 0.0 | 0.00 | 0.01 | 0.00 | 88 | 1006.5 |
| 20260905061003 | 62 | 168 | 0.0 | 0.0 | 0.00 | 0.01 | 0.00 | 87 | 1006.5 |
| 20260905060520 | 63 | 168 | 0.0 | 0.0 | 0.00 | 0.01 | 0.00 | 87 | 1006.5 |
| 20260905060005 | 63 | 168 | 0.0 | 0.0 | 0.00 | 0.01 | 0.00 | 87 | 1006.6 |
| 20260905055503 | 63 | 168 | 0.0 | 0.0 | 0.00 | 0.01 | 0.00 | 87 | 1006.6 |
| 20260905055000 | 63 | 168 | 0.0 | 0.0 | 0.00 | 0.01 | 0.00 | 87 | 1006.6 |
| 20260905054006 | 63 | 168 | 0.0 | 0.0 | 0.00 | 0.01 | 0.00 | 87 | 1006.4 |
| 20260905053458 | 63 | 168 | 0.0 | 0.0 | 0.00 | 0.01 | 0.00 | 87 | 1006.5 |
| 20260905053008 | 63 | 168 | 0.0 | 0.0 | 0.00 | 0.01 | 0.00 | 87 | 1006.5 |
| 20260905052503 | 63 | 168 | 0.0 | 0.0 | 0.00 | 0.01 | 0.00 | 87 | 1006.4 |
| 20260905052009 | 63 | 168 | 0.0 | 0.0 | 0.00 | 0.01 | 0.00 | 87 | 1006.5 |
| 20260905051459 | 64 | 168 | 0.0 | 0.0 | 0.00 | 0.01 | 0.00 | 87 | 1006.5 |
| 20260905051005 | 64 | 168 | 0.0 | 0.0 | 0.00 | 0.01 | 0.00 | 87 | 1006.4 |
| 20260905050515 | 64 | 168 | 0.0 | 0.0 | 0.00 | 0.01 | 0.00 | 87 | 1006.5 |
| 20260905050001 | 64 | 168 | 0.0 | 0.0 | 0.00 | 0.01 | 0.00 | 87 | 1006.7 |
| 20260905045511 | 64 | 168 | 0.0 | 0.0 | 0.00 | 0.01 | 0.00 | 87 | 1006.6 |
| 20260905045006 | 64 | 168 | 0.0 | 0.0 | 0.00 | 0.01 | 0.00 | 87 | 1006.6 |
| 20260905044003 | 64 | 168 | 0.0 | 0.0 | 0.00 | 0.01 | 0.00 | 87 | 1006.5 |
| 20260905043506 | 64 | 168 | 0.0 | 0.0 | 0.00 | 0.01 | 0.00 | 87 | 1006.4 |
| 20260905042959 | 65 | 168 | 0.0 | 0.0 | 0.00 | 0.01 | 0.00 | 87 | 1006.6 |
| 20260905042537 | 65 | 168 | 0.0 | 0.0 | 0.00 | 0.01 | 0.00 | 87 | 1006.4 |
| 20260905042000 | 65 | 168 | 0.0 | 0.0 | 0.00 | 0.01 | 0.00 | 87 | 1006.5 |
| 20260905041504 | 65 | 168 | 0.0 | 0.0 | 0.00 | 0.01 | 0.00 | 87 | 1006.5 |
| 20260905041035 | 65 | 168 | 0.0 | 0.0 | 0.00 | 0.01 | 0.00 | 87 | 1006.4 |
| 20260905040501 | 65 | 168 | 0.0 | 0.0 | 0.00 | 0.01 | 0.00 | 87 | 1006.4 |
| 20260905040033 | 65 | 168 | 0.0 | 0.0 | 0.00 | 0.01 | 0.00 | 87 | 1006.5 |
| 20260905035514 | 65 | 168 | 0.0 | 0.0 | 0.00 | 0.01 | 0.01 | 87 | 1006.5 |
| 20260905035004 | 65 | 168 | 0.0 | 0.0 | 0.00 | 0.01 | 0.01 | 87 | 1006.4 |
| 20260905034502 | 65 | 168 | 0.0 | 0.0 | 0.00 | 0.01 | 0.01 | 86 | 1006.6 |
| 20260905034005 | 65 | 168 | 0.0 | 0.0 | 0.00 | 0.01 | 0.01 | 86 | 1006.6 |
| 20260905033504 | 66 | 168 | 0.0 | 0.0 | 0.00 | 0.01 | 0.01 | 86 | 1006.5 |
| 20260905033005 | 66 | 168 | 0.0 | 0.0 | 0.00 | 0.01 | 0.01 | 86 | 1006.5 |
| 20260905032510 | 66 | 168 | 0.0 | 0.0 | 0.00 | 0.01 | 0.01 | 86 | 1006.5 |
| 20260905032027 | 66 | 168 | 0.0 | 0.0 | 0.00 | 0.01 | 0.01 | 86 | 1006.6 |
| 20260905031506 | 66 | 168 | 0.0 | 0.0 | 0.00 | 0.01 | 0.01 | 86 | 1006.6 |
| 20260905031005 | 66 | 168 | 0.0 | 0.0 | 0.00 | 0.01 | 0.01 | 86 | 1006.6 |
| 20260905030511 | 66 | 168 | 0.0 | 0.0 | 0.00 | 0.01 | 0.01 | 86 | 1006.6 |
| 20260905030006 | 66 | 168 | 0.0 | 0.0 | 0.00 | 0.01 | 0.01 | 86 | 1006.5 |
| 20260905025500 | 66 | 168 | 0.0 | 0.0 | 0.00 | 0.01 | 0.01 | 86 | 1006.5 |
| 20260905025007 | 67 | 168 | 0.0 | 0.0 | 0.00 | 0.01 | 0.01 | 86 | 1006.5 |
| 20260905024006 | 67 | 168 | 0.0 | 0.0 | 0.00 | 0.01 | 0.01 | 86 | 1006.5 |
| 20260905022000 | 67 | 168 | 0.0 | 0.0 | 0.00 | 0.01 | 0.01 | 86 | 1006.6 |
| 20260905021541 | 67 | 168 | 0.0 | 0.0 | 0.00 | 0.01 | 0.01 | 86 | 1006.6 |
| 20260905021007 | 68 | 168 | 0.0 | 0.0 | 0.00 | 0.01 | 0.01 | 86 | 1006.7 |
| 20260905020501 | 68 | 168 | 0.0 | 0.0 | 0.00 | 0.01 | 0.01 | 86 | 1006.7 |
| 20260905020007 | 68 | 168 | 0.0 | 0.0 | 0.00 | 0.01 | 0.01 | 86 | 1006.8 |
| 20260905015503 | 68 | 168 | 0.0 | 0.0 | 0.00 | 0.01 | 0.01 | 86 | 1006.9 |
| 20260905015007 | 68 | 168 | 0.0 | 0.0 | 0.00 | 0.01 | 0.01 | 86 | 1007.0 |
| 20260905014500 | 68 | 168 | 0.0 | 0.0 | 0.00 | 0.01 | 0.01 | 86 | 1006.9 |
| 20260905014024 | 68 | 168 | 0.0 | 0.0 | 0.00 | 0.01 | 0.01 | 85 | 1007.0 |
| 20260905013514 | 68 | 168 | 0.0 | 0.0 | 0.00 | 0.01 | 0.01 | 85 | 1007.0 |
| 20260905013023 | 68 | 168 | 0.0 | 0.0 | 0.00 | 0.01 | 0.01 | 85 | 1007.0 |
| 20260905012509 | 68 | 93 | 0.0 | 0.0 | 0.00 | 0.01 | 0.01 | 85 | 1007.0 |
| 20260905012022 | 68 | 93 | 0.0 | 0.0 | 0.00 | 0.01 | 0.01 | 85 | 1007.1 |
| 20260905011528 | 68 | 93 | 0.0 | 0.0 | 0.00 | 0.01 | 0.01 | 84 | 1007.2 |
| 20260905011006 | 68 | 93 | 0.0 | 0.0 | 0.00 | 0.01 | 0.01 | 84 | 1007.1 |
| 20260905010509 | 68 | 93 | 0.0 | 0.0 | 0.00 | 0.01 | 0.01 | 84 | 1007.0 |
| 20260905010004 | 69 | 93 | 0.0 | 0.0 | 0.00 | 0.01 | 0.01 | 84 | 1007.0 |
| 20260905005507 | 69 | 93 | 0.0 | 0.0 | 0.00 | 0.01 | 0.01 | 83 | 1007.0 |
| 20260905005031 | 69 | 93 | 0.0 | 0.0 | 0.00 | 0.01 | 0.01 | 83 | 1007.0 |